TimeCST,TemperatureF,Dew PointF,Humidity,Sea Level PressureIn,VisibilityMPH,Wind Direction,Wind SpeedMPH,Gust SpeedMPH,PrecipitationIn,Events,Conditions,WindDirDegrees,DateUTC
12:53 AM,27.0,19.9,75,30.38,10.0,South,8.1,-,N/A,,Clear,170,2013-01-18 06:53:00
1:53 AM,27.0,21.0,78,30.37,10.0,South,8.1,-,N/A,,Clear,170,2013-01-18 07:53:00
2:53 AM,27.0,21.0,78,30.35,10.0,South,12.7,-,N/A,,Clear,190,2013-01-18 08:53:00
3:53 AM,28.0,23.0,81,30.31,10.0,South,11.5,-,N/A,,Clear,190,2013-01-18 09:53:00
4:53 AM,28.9,24.1,82,30.28,10.0,South,13.8,-,N/A,,Clear,190,2013-01-18 10:53:00
5:53 AM,32.0,25.0,75,30.25,10.0,SSW,18.4,-,N/A,,Clear,200,2013-01-18 11:53:00
6:53 AM,30.9,25.0,79,30.23,10.0,SSW,17.3,-,N/A,,Clear,200,2013-01-18 12:53:00
7:53 AM,32.0,26.1,79,30.21,10.0,SSW,18.4,-,N/A,,Clear,200,2013-01-18 13:53:00
8:53 AM,36.0,27.0,70,30.20,10.0,SSW,19.6,27.6,N/A,,Clear,200,2013-01-18 14:53:00
9:53 AM,39.9,28.9,65,30.18,10.0,SSW,18.4,27.6,N/A,,Clear,210,2013-01-18 15:53:00
10:53 AM,46.9,28.9,50,30.12,10.0,SSW,25.3,40.3,N/A,,Clear,210,2013-01-18 16:53:00
11:53 AM,51.1,28.9,43,30.07,10.0,SW,25.3,39.1,N/A,,Clear,220,2013-01-18 17:53:00
12:53 PM,52.0,28.9,41,30.02,10.0,SW,24.2,36.8,N/A,,Clear,220,2013-01-18 18:53:00
1:53 PM,55.0,28.9,37,29.99,10.0,SW,25.3,39.1,N/A,,Clear,230,2013-01-18 19:53:00
2:53 PM,55.9,30.0,37,29.97,10.0,SW,28.8,36.8,N/A,,Clear,220,2013-01-18 20:53:00
3:53 PM,55.0,30.0,38,29.96,10.0,SW,18.4,29.9,N/A,,Clear,220,2013-01-18 21:53:00
4:53 PM,53.1,30.0,41,29.96,10.0,SW,16.1,-,N/A,,Clear,220,2013-01-18 22:53:00
5:53 PM,48.0,30.0,50,29.98,10.0,SW,13.8,-,N/A,,Clear,220,2013-01-18 23:53:00
6:53 PM,46.0,30.0,54,29.98,10.0,SW,12.7,-,N/A,,Clear,220,2013-01-19 00:53:00
7:53 PM,48.0,30.0,50,29.99,10.0,SW,17.3,-,N/A,,Clear,230,2013-01-19 01:53:00
8:53 PM,45.0,30.0,56,29.99,10.0,SW,13.8,-,N/A,,Clear,230,2013-01-19 02:53:00
9:53 PM,44.1,30.0,58,29.98,10.0,SW,16.1,-,N/A,,Clear,230,2013-01-19 03:53:00
10:53 PM,44.1,30.0,58,29.95,10.0,SW,17.3,-,N/A,,Clear,220,2013-01-19 04:53:00
11:53 PM,43.0,30.0,60,29.94,10.0,SW,15.0,-,N/A,,Clear,230,2013-01-19 05:53:00